Tracking 31027 objects as of 19-Jul-2025
HD Live streaming from Space Station
objects crossing your sky now

TRANSIT 4B

Track TRANSIT 4B now!
10-day predictions
TRANSIT 4B is classified as:


NORAD ID: 202
Int'l Code: 1961-031A
Perigee: 954.5 km
Apogee: 1,104.0 km
Inclination: 32.4 °
Period: 105.6 minutes
Semi major axis: 7400 km
RCS: 2.1391 m2 (large)
Launch date: November 15, 1961
Source: United States (US)
Launch site: AIR FORCE EASTERN TEST RANGE (AFETR)
Your satellite tracking list
XMM
Track 1 satellite(s)




NASA's NSSDC Master Catalog

Two Line Element Set (TLE):
1   202U 61031A   25199.76337811  .00000064  00000-0  47635-4 0  9996
2   202  32.4360 232.3363 0101008 202.1718 157.4514 13.63752691175527
Source of the keplerian elements: AFSPC